Wind_Speed
17 18 16 19 28 12 14 15 7 7 6 8 7 7 5 6 10 4 6 10 10 11 12 13 14 14 15 15 14 14 15 14 15 13 13 11 12 11 9 9 8 8 9 10 9 8 8 7 7
17 18 16 27 20 11 12 10 9 7 7 6 6 5 5 5 6 6 6 8 10 9 11 12 13 12 13 13 13 12 13 13 12 10 10 10 10 10 9 8 7 7 7 6 6 7 5 6 5
15 18 20 22 12 11 11 11 9 7 6 6 5 4 3 4 5 6 6 6 8 7 9 11 12 11 12 12 11 11 11 11 10 9 9 8 8 9 8 8 6 5 4 4 4 5 4 3 5
15 17 30 14 15 15 12 11 10 10 6 6 4 5 4 2 5 6 4 6 6 7 6 10 11 11 12 13 11 11 12 10 9 9 8 8 8 8 8 7 6 6 5 5 4 4 3 3 3
12 27 27 15 14 17 16 11 10 9 7 7 5 5 5 5 6 6 4 3 5 6 5 7 9 9 9 10 11 11 11 10 10 9 8 8 8 8 7 7 6 5 5 5 5 5 5 3 3
22 22 10 12 14 16 15 14 13 11 8 7 7 6 5 7 7 6 4 2 1 5 3 4 6 7 8 8 9 9 8 8 7 7 7 7 6 7 6 6 6 4 4 4 4 4 4 4 4
22 17 10 13 13 16 15 12 14 13 10 9 7 7 6 7 8 7 6 4 2 3 5 3 3 4 4 5 5 4 4 5 4 4 4 4 4 5 5 5 6 5 3 3 3 3 4 4 4
19 22 9 13 8 15 15 16 13 17 14 10 10 7 7 5 5 6 5 5 5 4 5 4 4 4 3 2 1 2 3 3 2 2 2 3 3 4 4 4 2 4 2 2 3 3 4 5 4
21 20 5 7 8 14 14 17 18 13 14 14 11 10 8 6 4 4 4 5 4 4 5 6 6 5 4 2 2 2 2 2 1 1 2 3 4 5 6 4 3 1 2 4 2 4 5 6 6
19 1 2 3 6 9 13 16 16 17 16 13 12 11 8 6 4 1 3 3 4 6 6 6 6 6 5 4 3 2 3 2 1 1 1 0 3 7 6 4 4 4 2 1 2 2 4 7 7
7 2 4 4 5 9 10 14 14 13 19 17 15 12 9 6 4 1 2 3 4 5 7 8 8 7 6 5 4 4 4 2 2 1 0 1 1 2 6 6 5 5 3 2 3 3 5 7 6
10 2 4 4 2 6 9 11 15 15 14 14 15 15 14 9 4 2 1 4 6 6 7 9 9 8 7 7 5 6 6 6 5 4 1 2 2 4 4 6 5 5 5 6 9 12 8 7 8
4 5 5 3 1 3 6 9 12 12 14 14 12 15 16 13 7 3 3 0 6 9 9 8 8 10 8 7 6 6 7 7 7 6 4 3 2 4 3 3 7 8 10 10 12 15 13 10 11
13 7 7 4 3 3 5 7 9 12 13 15 15 14 17 18 11 11 8 3 1 7 10 10 10 11 11 9 6 6 6 7 7 6 4 5 6 5 6 6 6 7 9 11 13 15 12 17 11
10 5 9 8 6 5 6 1 13 12 13 15 16 13 15 18 15 12 10 7 2 4 7 10 11 11 11 9 8 7 6 5 5 6 6 5 6 6 8 7 8 10 11 11 9 12 11 11 9
6 2 6 9 17 7 7 4 12 12 12 14 16 16 13 16 18 15 11 11 7 3 8 9 10 9 8 10 9 7 6 5 7 7 8 8 8 8 10 10 10 12 14 12 12 13 11 6 5
10 10 7 12 14 7 4 11 12 12 12 14 15 18 14 13 16 18 16 14 13 7 1 2 7 6 7 9 8 6 6 6 9 9 10 12 12 11 10 10 11 11 12 12 14 13 8 6 7
17 5 9 7 13 8 2 9 16 14 11 14 16 17 16 11 13 16 17 17 15 13 10 5 3 4 5 6 7 6 6 6 8 10 9 9 11 11 11 11 11 12 12 10 11 10 10 7 7
14 13 10 14 14 10 3 7 15 16 11 13 14 15 16 13 11 12 14 15 18 16 13 11 6 2 7 8 7 7 7 5 4 3 3 4 5 6 7 6 6 7 8 9 8 9 10 7 7
16 15 9 11 22 18 11 11 7 21 13 11 13 14 15 12 12 7 11 12 14 14 14 11 9 8 6 4 6 9 8 4 1 2 3 3 5 4 4 4 6 5 4 5 3 6 6 6 7
20 17 12 17 18 19 15 12 15 16 14 11 15 14 17 12 13 10 10 11 11 10 10 9 8 7 5 3 1 3 3 3 2 3 2 4 9 7 5 5 6 5 3 3 2 3 4 4 5
20 17 18 18 21 9 11 13 20 19 11 16 16 15 16 13 11 9 8 12 12 11 8 6 6 6 5 5 5 5 4 5 6 5 6 8 9 10 11 9 8 8 6 3 2 3 3 3 4
20 18 14 25 17 15 11 13 8 23 12 14 12 13 12 15 13 9 10 11 12 11 9 8 7 6 7 9 9 10 11 11 11 10 12 12 13 13 14 12 11 12 11 8 5 4 4 4 5
21 21 22 19 16 18 14 15 13 16 17 3 4 13 12 16 13 8 8 9 10 11 9 8 11 12 10 10 10 12 13 14 15 14 15 15 16 17 16 16 14 12 12 12 10 7 7 7 8
23 21 18 17 17 18 13 17 18 18 16 5 12 17 17 16 11 7 4 7 9 9 9 9 11 13 16 15 14 13 14 14 16 17 15 14 14 13 13 15 17 17 13 12 12 11 11 11 11
21 20 20 17 16 14 17 23 21 17 20 21 20 17 19 16 14 11 7 8 10 13 12 13 16 16 15 16 18 18 16 16 16 18 18 16 14 14 14 13 14 16 17 14 14 15 15 16 16
17 23 19 20 20 18 20 33 4 12 11 6 9 13 21 17 15 14 12 8 11 11 14 18 23 19 15 14 17 19 19 21 20 20 18 17 17 17 19 17 16 14 14 18 18 18 18 19 20
21 14 17 20 20 21 17 20 12 13 9 10 8 11 11 14 16 14 15 12 14 17 19 22 24 20 15 16 15 18 20 22 22 22 21 18 18 18 21 20 19 16 14 15 19 20 21 21 22
18 22 21 15 17 15 16 16 13 14 14 9 13 12 13 14 13 14 18 15 17 20 21 23 22 19 16 16 16 16 19 21 22 24 23 24 23 21 21 22 22 20 17 15 17 20 24 26 27
14 16 19 16 18 16 22 19 18 4 7 10 11 14 22 15 11 13 16 17 16 20 21 23 22 14 15 19 19 20 23 22 23 28 29 27 26 25 22 19 20 20 19 20 20 21 24 26 27
Wind_Direction
50 61 75 70 47 43 59 81 48 64 90 84 102 130 109 88 103 93 86 90 87 98 103 109 115 123 125 128 123 116 114 111 110 114 112 116 110 113 119 116 111 101 89 73 63 64 62 62 59
54 63 73 70 71 52 58 69 67 85 103 101 84 95 112 113 86 82 74 93 98 96 107 105 107 112 112 112 113 117 120 123 121 121 122 116 117 121 123 129 121 112 99 88 63 57 61 61 58
59 67 55 57 84 51 59 62 75 69 88 110 117 119 117 120 99 84 72 86 96 93 103 108 110 112 113 114 116 120 120 115 118 123 121 136 135 126 126 115 111 107 93 72 58 55 55 56 51
72 42 46 58 41 44 47 55 68 78 81 92 130 159 144 140 125 102 93 84 94 98 101 114 116 121 119 118 123 118 107 109 112 116 125 125 131 134 124 111 103 94 94 90 76 74 53 35 44
70 58 54 19 48 28 38 47 60 64 71 93 110 139 166 167 160 124 117 100 90 84 112 125 123 117 126 122 117 110 106 108 109 113 116 117 125 127 118 113 106 101 92 86 79 69 63 38 25
65 62 50 13 35 28 31 48 55 51 56 70 88 103 147 176 174 154 155 142 133 110 97 148 148 136 125 123 119 116 119 106 109 120 121 113 116 121 123 123 122 106 93 82 66 56 53 38 37
75 78 41 38 0 38 34 45 53 49 55 59 77 87 113 149 169 181 181 193 187 163 136 166 172 152 140 131 141 132 120 124 129 121 132 134 132 134 136 137 127 111 78 59 43 23 20 24 19
69 68 25 33 357 37 34 51 54 49 44 58 57 69 80 101 137 171 183 197 210 209 174 171 184 191 169 154 139 133 122 111 105 133 154 146 167 172 179 147 116 110 71 17 25 8 359 354 342
71 66 9 54 32 40 42 50 52 55 49 51 55 55 62 90 127 157 182 186 187 209 215 189 187 197 204 209 177 138 105 100 127 124 194 205 196 203 209 200 270 222 232 258 310 355 346 332 319
97 60 74 66 42 57 54 54 56 58 47 51 49 49 47 51 73 139 143 182 181 192 211 215 211 211 210 218 220 183 178 154 127 80 171 302 246 216 214 230 216 217 219 287 324 340 328 330 328
136 165 97 106 57 60 60 56 49 55 46 45 39 31 30 34 55 80 158 199 207 194 198 207 212 222 223 223 228 226 222 220 217 229 91 306 110 144 224 220 215 222 246 286 314 297 334 333 332
95 276 155 143 60 47 40 50 53 56 50 43 41 33 24 21 26 21 56 212 212 202 197 200 208 215 219 215 223 241 238 241 248 248 261 350 111 205 230 227 236 240 251 254 278 283 300 309 326
232 192 213 197 269 6 13 28 47 54 42 37 37 35 29 22 26 8 339 269 219 209 198 207 211 211 214 217 214 226 239 238 247 260 270 288 270 267 297 291 256 261 271 287 302 318 285 297 291
207 201 219 233 252 283 344 9 14 34 34 29 25 31 31 27 35 45 37 35 9 213 201 200 206 210 209 205 207 222 230 240 248 260 267 277 283 291 294 296 304 284 286 288 297 309 308 270 269
183 112 293 267 253 274 287 146 353 14 15 22 18 24 31 31 35 35 27 32 346 222 213 216 216 216 211 205 209 210 215 240 256 254 248 261 279 293 285 292 294 301 293 299 304 308 318 333 293
202 90 274 250 276 276 291 93 342 350 1 18 19 20 26 33 34 33 40 35 43 319 250 243 231 226 221 214 217 219 217 234 243 254 266 273 276 274 275 276 276 290 296 299 293 307 308 321 351
298 284 206 301 259 242 289 346 325 327 343 9 21 20 20 33 34 35 33 42 51 43 49 252 215 218 226 222 223 235 241 236 251 260 272 280 275 274 277 273 274 284 284 289 288 296 297 313 314
240 232 276 239 257 237 297 307 307 301 323 350 11 23 22 25 32 32 34 37 49 64 68 79 156 198 212 214 213 228 239 250 260 262 269 265 264 263 275 275 276 279 287 289 285 278 274 283 295
249 215 236 269 251 214 270 253 305 306 297 333 355 11 20 20 22 27 25 32 40 42 47 52 50 295 262 240 236 230 217 167 132 137 229 243 249 268 273 287 299 299 301 290 274 261 249 260 278
245 230 240 263 284 236 247 256 228 283 281 311 335 6 14 10 1 1 12 13 30 36 38 42 40 44 65 138 197 207 181 168 119 67 5 329 299 291 273 300 311 307 319 318 270 207 226 250 263
234 228 233 249 250 246 258 283 274 277 289 299 309 327 347 0 353 358 5 12 5 10 25 26 32 39 57 74 168 205 160 39 83 55 310 287 288 291 300 299 298 307 314 295 257 212 213 233 247
234 239 234 242 261 248 266 266 328 258 286 293 302 292 319 329 344 348 5 352 354 357 339 348 355 359 350 340 321 296 276 267 284 265 280 296 302 309 303 289 286 284 284 277 252 233 209 202 222
236 237 240 244 254 265 268 280 282 288 278 294 299 289 290 314 318 310 308 332 333 339 335 301 295 299 308 313 309 304 301 299 292 293 291 296 296 293 294 296 288 286 287 284 279 262 252 250 275
238 236 241 245 250 250 252 253 260 276 244 86 281 300 287 295 303 310 327 335 329 324 310 299 283 276 277 283 291 297 296 295 292 291 295 299 301 296 289 283 284 286 282 283 281 268 256 270 286
240 240 238 252 249 256 252 247 246 238 289 283 257 286 294 286 278 270 318 318 323 335 322 291 276 273 271 275 277 280 287 290 289 289 291 296 300 302 306 305 287 272 266 265 266 270 275 278 281
244 233 232 244 246 261 257 240 244 240 263 268 280 307 283 282 269 256 253 281 290 303 301 314 316 289 278 276 278 285 283 281 278 284 292 293 299 303 307 324 323 278 263 261 263 272 282 289 294
236 238 233 238 245 250 257 263 254 234 253 272 300 255 299 282 270 257 244 254 268 302 305 313 323 290 286 280 278 280 284 287 286 286 287 290 299 306 308 316 325 324 272 267 276 281 288 296 303
236 228 236 233 237 239 246 279 279 253 250 242 252 310 296 282 270 257 247 253 280 299 304 317 319 307 288 293 296 293 291 292 288 288 284 285 289 298 300 311 317 320 315 288 281 286 288 289 291
240 241 242 229 244 242 253 260 238 241 237 225 249 273 260 276 275 249 245 262 293 306 320 318 321 322 302 296 290 290 291 292 291 284 281 283 284 286 294 307 317 309 305 301 295 293 294 295 295
228 249 228 233 228 227 243 251 304 279 283 276 257 264 261 276 273 243 258 277 299 309 317 314 316 307 294 288 289 285 287 281 279 283 279 275 280 285 291 305 307 310 303 304 299 296 296 294 292
Height
5906 5904 5903 5902 5901 5904 5900 5900 5898 5897 5893 5893 5893 5893 5893 5892 5892 5893 5889 5888 5887 5887 5886 5887 5887 5887 5888 5888 5888 5889 5890 5890 5891 5893 5893 5894 5893 5893 5893 5893 5894 5894 5894 5894 5894 5894 5893 5893 5892
5909 5907 5906 5905 5909 5909 5904 5899 5897 5895 5895 5894 5894 5894 5895 5893 5893 5893 5892 5890 5890 5890 5889 5889 5889 5889 5889 5890 5890 5891 5892 5893 5893 5895 5896 5896 5895 5895 5895 5896 5895 5895 5895 5895 5895 5895 5895 5894 5894
5912 5910 5908 5910 5911 5910 5905 5901 5898 5897 5895 5894 5895 5895 5895 5894 5894 5894 5894 5893 5892 5893 5892 5891 5891 5891 5891 5892 5893 5893 5894 5894 5895 5896 5896 5897 5897 5897 5898 5897 5897 5897 5897 5897 5896 5896 5897 5897 5895
5913 5912 5909 5918 5913 5910 5907 5904 5900 5899 5897 5895 5894 5895 5895 5895 5895 5896 5896 5895 5895 5895 5895 5894 5894 5894 5894 5893 5895 5896 5896 5896 5897 5898 5898 5899 5899 5899 5898 5899 5898 5898 5898 5898 5898 5898 5898 5897 5896
5916 5913 5917 5921 5915 5911 5909 5907 5904 5902 5899 5897 5895 5895 5895 5896 5896 5896 5897 5897 5897 5897 5897 5896 5895 5895 5896 5896 5897 5897 5898 5899 5899 5900 5900 5900 5901 5900 5900 5900 5900 5900 5900 5899 5899 5898 5897 5897 5897
5916 5921 5928 5923 5918 5914 5911 5908 5905 5904 5902 5899 5897 5896 5896 5896 5896 5897 5897 5898 5898 5898 5899 5899 5898 5898 5898 5898 5899 5900 5900 5900 5901 5901 5901 5902 5901 5901 5901 5901 5902 5902 5902 5901 5900 5899 5898 5898 5897
5919 5927 5928 5923 5921 5916 5913 5910 5907 5905 5903 5901 5898 5897 5897 5896 5896 5897 5898 5898 5898 5899 5899 5900 5900 5900 5900 5900 5901 5901 5902 5902 5903 5903 5903 5902 5902 5902 5902 5903 5902 5902 5902 5902 5901 5900 5899 5899 5898
5923 5924 5932 5928 5922 5918 5914 5911 5909 5907 5905 5903 5901 5900 5899 5898 5898 5897 5898 5898 5899 5900 5900 5901 5901 5902 5902 5903 5903 5903 5903 5904 5904 5904 5903 5903 5903 5903 5904 5903 5904 5903 5903 5903 5902 5902 5900 5900 5899
5927 5927 5932 5929 5925 5920 5917 5913 5911 5909 5907 5905 5903 5901 5900 5899 5899 5898 5898 5898 5900 5900 5901 5902 5902 5903 5904 5905 5905 5905 5905 5905 5905 5905 5904 5903 5903 5903 5904 5904 5904 5903 5903 5903 5902 5902 5901 5900 5899
5929 5933 5929 5925 5926 5922 5919 5916 5913 5911 5909 5907 5905 5903 5901 5900 5899 5899 5898 5899 5899 5900 5901 5902 5903 5904 5905 5906 5906 5906 5906 5906 5906 5906 5905 5904 5903 5903 5904 5905 5904 5904 5903 5902 5901 5900 5900 5900 5899
5929 5929 5928 5926 5924 5923 5920 5918 5915 5912 5910 5909 5907 5905 5903 5901 5899 5899 5898 5898 5899 5899 5900 5901 5902 5904 5905 5905 5906 5906 5907 5907 5907 5906 5906 5904 5903 5904 5904 5904 5904 5904 5904 5903 5901 5900 5899 5899 5898
5932 5929 5927 5926 5925 5923 5922 5919 5917 5915 5914 5912 5909 5907 5904 5902 5900 5899 5897 5897 5898 5899 5899 5900 5901 5902 5903 5905 5905 5906 5906 5906 5907 5906 5905 5905 5904 5904 5903 5904 5904 5904 5904 5903 5901 5899 5899 5898 5897
5932 5930 5927 5926 5925 5924 5922 5920 5919 5917 5915 5913 5910 5908 5906 5903 5901 5899 5897 5896 5896 5897 5898 5899 5900 5901 5903 5904 5904 5905 5905 5906 5905 5906 5906 5905 5905 5905 5904 5903 5904 5903 5903 5902 5901 5898 5898 5897 5896
5928 5928 5927 5926 5925 5923 5922 5920 5919 5918 5917 5915 5912 5910 5907 5904 5902 5900 5898 5896 5896 5896 5897 5898 5899 5900 5901 5902 5904 5904 5904 5904 5905 5905 5905 5905 5904 5903 5903 5903 5902 5902 5902 5902 5901 5900 5895 5894 5894
5928 5930 5929 5927 5925 5923 5921 5919 5919 5919 5918 5917 5914 5911 5909 5907 5904 5902 5899 5897 5896 5896 5897 5897 5898 5899 5901 5902 5902 5903 5904 5905 5905 5904 5903 5904 5904 5904 5903 5902 5902 5901 5901 5901 5900 5899 5896 5894 5893
5928 5931 5933 5926 5926 5924 5920 5893 5919 5919 5919 5918 5916 5913 5911 5908 5906 5904 5901 5898 5896 5895 5896 5897 5898 5899 5900 5901 5901 5902 5902 5904 5904 5903 5903 5903 5902 5902 5901 5900 5899 5899 5898 5898 5897 5896 5894 5893 5893
5932 5932 5933 5931 5926 5924 5923 5924 5920 5919 5919 5919 5917 5915 5912 5910 5908 5906 5903 5899 5897 5895 5895 5895 5897 5899 5899 5900 5901 5902 5902 5902 5902 5902 5901 5902 5901 5901 5900 5898 5897 5896 5895 5895 5894 5893 5892 5892 5892
5931 5934 5932 5932 5927 5925 5926 5926 5921 5921 5918 5919 5918 5916 5913 5911 5909 5908 5905 5902 5899 5897 5896 5896 5897 5898 5898 5899 5900 5900 5901 5901 5900 5900 5900 5899 5899 5899 5898 5897 5895 5894 5892 5892 5891 5891 5890 5890 5890
5931 5932 5932 5929 5925 5925 5927 5927 5924 5920 5919 5918 5917 5916 5914 5912 5911 5909 5907 5904 5902 5900 5898 5897 5897 5898 5898 5899 5900 5900 5900 5900 5899 5899 5899 5898 5898 5896 5895 5895 5893 5891 5890 5889 5887 5888 5888 5887 5887
5927 5926 5931 5931 5924 5925 5924 5926 5925 5919 5919 5918 5917 5917 5915 5913 5911 5910 5909 5907 5905 5903 5902 5900 5899 5899 5898 5898 5900 5900 5901 5901 5900 5899 5899 5899 5897 5896 5894 5893 5892 5891 5889 5888 5886 5885 5885 5885 5884
5919 5922 5928 5925 5925 5922 5923 5922 5920 5917 5915 5916 5916 5916 5915 5914 5912 5910 5909 5908 5907 5906 5905 5904 5903 5903 5902 5903 5903 5903 5903 5903 5901 5899 5898 5898 5897 5895 5894 5893 5892 5891 5889 5887 5886 5885 5883 5883 5882
5914 5919 5921 5924 5921 5923 5924 5923 5913 5912 5913 5913 5913 5914 5913 5913 5912 5911 5909 5908 5907 5907 5906 5906 5905 5905 5905 5905 5905 5905 5904 5903 5902 5901 5899 5896 5895 5895 5894 5892 5891 5890 5888 5887 5885 5885 5883 5883 5882
5910 5915 5920 5919 5918 5921 5922 5924 5923 5915 5916 5910 5909 5910 5912 5911 5911 5910 5909 5909 5907 5907 5906 5905 5904 5904 5904 5904 5903 5903 5902 5901 5900 5898 5897 5895 5895 5894 5893 5892 5891 5890 5888 5886 5884 5884 5883 5882 5882
5906 5908 5911 5911 5914 5917 5920 5923 5921 5919 5897 5907 5911 5908 5909 5909 5909 5909 5908 5907 5906 5905 5904 5903 5902 5902 5902 5902 5901 5900 5899 5899 5897 5896 5895 5894 5894 5893 5892 5891 5889 5888 5888 5887 5885 5883 5882 5881 5881
5900 5904 5909 5911 5912 5913 5917 5919 5918 5917 5908 5908 5908 5907 5907 5907 5908 5908 5907 5907 5905 5905 5904 5902 5900 5900 5900 5900 5899 5897 5897 5896 5895 5894 5892 5892 5892 5891 5889 5888 5886 5886 5884 5884 5883 5883 5882 5880 5879
5896 5901 5906 5908 5911 5913 5914 5912 5911 5910 5907 5906 5904 5905 5905 5905 5905 5906 5907 5906 5905 5904 5901 5900 5899 5897 5897 5897 5896 5895 5894 5893 5892 5892 5892 5891 5890 5888 5886 5884 5882 5881 5882 5881 5880 5880 5880 5879 5878
5895 5894 5901 5905 5908 5910 5910 5900 5895 5907 5905 5907 5908 5904 5900 5902 5902 5904 5904 5904 5903 5902 5900 5897 5896 5894 5894 5894 5895 5894 5893 5892 5890 5889 5889 5889 5887 5885 5884 5883 5880 5878 5877 5878 5878 5877 5877 5877 5876
5889 5896 5897 5899 5902 5904 5906 5903 5906 5904 5903 5904 5908 5900 5898 5897 5898 5900 5901 5902 5900 5900 5897 5896 5894 5893 5893 5893 5893 5893 5892 5890 5888 5887 5886 5885 5883 5882 5881 5880 5878 5876 5875 5875 5874 5873 5872 5871 5870
5884 5886 5889 5896 5900 5901 5902 5903 5901 5897 5896 5900 5901 5901 5898 5898 5895 5897 5898 5898 5897 5897 5895 5893 5892 5891 5891 5890 5890 5889 5889 5887 5886 5885 5883 5882 5881 5880 5879 5877 5875 5874 5871 5870 5869 5869 5868 5868 5867
5881 5883 5885 5891 5895 5897 5896 5899 5890 5890 5896 5896 5899 5897 5893 5894 5893 5894 5895 5894 5896 5894 5893 5892 5890 5888 5887 5887 5887 5886 5884 5883 5883 5881 5880 5879 5878 5878 5876 5873 5872 5870 5867 5865 5864 5863 5863 5861 5861